| time (UTC) | temp C | wind direction | speed KPH | gust KPH | rain 1hr cm | rain 24hr cm | rain mn cm | humidity % | barometer mb |
| 20260505194520 | 26 | 219 | 3.2 | 14.5 | 0.00 | 0.00 | 0.00 | 75 | 1005.1 |
| 20260505193019 | 27 | 204 | 3.2 | 25.7 | 0.00 | 0.00 | 0.00 | 74 | 1005.4 |
| 20260505191505 | 26 | 219 | 3.2 | 14.5 | 0.00 | 0.00 | 0.00 | 75 | 1005.4 |
| 20260505190003 | 26 | 219 | 3.2 | 24.1 | 0.00 | 0.00 | 0.00 | 77 | 1005.3 |
| 20260505184606 | 26 | 219 | 6.4 | 27.4 | 0.00 | 0.00 | 0.00 | 77 | 1005.5 |
| 20260505183057 | 25 | 214 | 1.6 | 25.7 | 0.00 | 0.00 | 0.00 | 79 | 1005.8 |
| 20260505181553 | 25 | 226 | 3.2 | 22.5 | 0.00 | 0.00 | 0.00 | 82 | 1005.9 |
| 20260505180058 | 25 | 213 | 4.8 | 20.9 | 0.00 | 0.00 | 0.00 | 82 | 1006.2 |
| 20260505174608 | 25 | 216 | 1.6 | 14.5 | 0.00 | 0.00 | 0.00 | 82 | 1006.3 |
| 20260505173049 | 24 | 211 | 1.6 | 12.9 | 0.00 | 0.00 | 0.00 | 84 | 1006.3 |
| 20260505171547 | 24 | 226 | 1.6 | 14.5 | 0.00 | 0.00 | 0.00 | 84 | 1006.5 |
| 20260505170110 | 23 | 220 | 0.0 | 11.3 | 0.00 | 0.00 | 0.00 | 86 | 1006.4 |
| 20260505164543 | 23 | 224 | 1.6 | 22.5 | 0.00 | 0.00 | 0.00 | 86 | 1006.6 |
| 20260505163044 | 23 | 245 | 3.2 | 16.1 | 0.00 | 0.00 | 0.00 | 87 | 1006.6 |
| 20260505161536 | 23 | 232 | 0.0 | 16.1 | 0.00 | 0.00 | 0.00 | 88 | 1006.6 |
| 20260505153031 | 22 | 254 | 0.0 | 20.9 | 0.00 | 0.00 | 0.00 | 88 | 1006.6 |
| 20260505151526 | 22 | 221 | 1.6 | 12.9 | 0.00 | 0.00 | 0.00 | 88 | 1006.5 |
| 20260505124507 | 21 | 223 | 1.6 | 16.1 | 0.00 | 0.00 | 0.00 | 87 | 1005.6 |
| 20260505123003 | 21 | 225 | 0.0 | 17.7 | 0.00 | 0.00 | 0.00 | 87 | 1005.4 |
| 20260505121502 | 21 | 210 | 0.0 | 14.5 | 0.00 | 0.00 | 0.00 | 87 | 1005.2 |
| 20260505120003 | 21 | 212 | 1.6 | 9.7 | 0.00 | 0.00 | 0.00 | 87 | 1005.2 |
| 20260505114501 | 21 | 212 | 1.6 | 9.7 | 0.00 | 0.00 | 0.00 | 87 | 1005.2 |
| 20260505113100 | 21 | 214 | 0.0 | 14.5 | 0.00 | 0.00 | 0.00 | 88 | 1005.1 |
| 20260505111609 | 21 | 219 | 1.6 | 16.1 | 0.00 | 0.00 | 0.00 | 88 | 1005.0 |
| 20260505101554 | 21 | 216 | 3.2 | 19.3 | 0.00 | 0.00 | 0.00 | 88 | 1005.5 |
| 20260505100055 | 21 | 218 | 3.2 | 20.9 | 0.00 | 0.00 | 0.00 | 87 | 1005.2 |
| 20260505094554 | 21 | 201 | 1.6 | 24.1 | 0.00 | 0.00 | 0.00 | 87 | 1005.3 |
| 20260505093054 | 21 | 226 | 1.6 | 24.1 | 0.00 | 0.00 | 0.00 | 88 | 1005.0 |
| 20260505091551 | 21 | 214 | 1.6 | 17.7 | 0.00 | 0.00 | 0.00 | 88 | 1005.1 |
| 20260505090054 | 21 | 188 | 0.0 | 11.3 | 0.00 | 0.00 | 0.00 | 87 | 1005.2 |
| 20260505084551 | 21 | 200 | 1.6 | 14.5 | 0.00 | 0.00 | 0.00 | 87 | 1005.3 |
| 20260505083100 | 21 | 207 | 1.6 | 9.7 | 0.00 | 0.00 | 0.00 | 87 | 1005.7 |
| 20260505081548 | 21 | 216 | 1.6 | 14.5 | 0.00 | 0.00 | 0.00 | 86 | 1006.0 |
| 20260505080043 | 21 | 189 | 1.6 | 14.5 | 0.00 | 0.00 | 0.00 | 86 | 1006.1 |
| 20260505074545 | 21 | 209 | 3.2 | 14.5 | 0.00 | 0.00 | 0.00 | 85 | 1005.9 |
| 20260505073039 | 21 | 208 | 1.6 | 12.9 | 0.00 | 0.00 | 0.00 | 85 | 1006.5 |
| 20260505071540 | 21 | 205 | 1.6 | 14.5 | 0.00 | 0.00 | 0.00 | 85 | 1006.7 |
| 20260505070045 | 21 | 211 | 0.0 | 11.3 | 0.00 | 0.00 | 0.00 | 85 | 1006.9 |
| 20260505064551 | 21 | 206 | 1.6 | 12.9 | 0.00 | 0.00 | 0.00 | 85 | 1007.1 |
| 20260505064504 | 21 | 205 | 1.6 | 12.9 | 0.00 | 0.00 | 0.00 | 85 | 1007.1 |
| 20260505063034 | 21 | 209 | 1.6 | 12.9 | 0.00 | 0.00 | 0.00 | 85 | 1007.2 |
| 20260505061540 | 21 | 197 | 0.0 | 12.9 | 0.00 | 0.00 | 0.00 | 85 | 1007.2 |
| 20260505060032 | -17 | 0.0 | 0.0 | 0.00 | 0.00 | 0.00 | 1007.3 | ||
| 20260505054527 | 21 | 209 | 0.0 | 8.0 | 0.00 | 0.00 | 0.00 | 83 | 1007.3 |
| 20260505053026 | 21 | 202 | 0.0 | 8.0 | 0.00 | 0.00 | 0.00 | 83 | 1007.6 |
| 20260505051524 | 21 | 203 | 1.6 | 11.3 | 0.00 | 0.00 | 0.00 | 82 | 1007.4 |
| 20260505041529 | 22 | 199 | 0.0 | 6.4 | 0.00 | 0.00 | 0.00 | 80 | 1007.1 |
| 20260505040020 | 22 | 192 | 0.0 | 4.8 | 0.00 | 0.00 | 0.00 | 80 | 1007.2 |
| 20260505034518 | 22 | 172 | 0.0 | 6.4 | 0.00 | 0.00 | 0.00 | 79 | 1007.3 |
| 20260505033019 | 22 | 196 | 0.0 | 12.9 | 0.00 | 0.00 | 0.00 | 78 | 1007.3 |
| 20260505031518 | 22 | 184 | 0.0 | 11.3 | 0.00 | 0.00 | 0.00 | 77 | 1007.2 |
| 20260505030017 | 22 | 189 | 0.0 | 8.0 | 0.00 | 0.00 | 0.00 | 76 | 1007.2 |
| 20260505024534 | 23 | 181 | 0.0 | 9.7 | 0.00 | 0.00 | 0.00 | 75 | 1007.1 |
| 20260505023016 | 23 | 200 | 0.0 | 4.8 | 0.00 | 0.00 | 0.00 | 74 | 1006.8 |
| 20260505021518 | 23 | 204 | 1.6 | 11.3 | 0.00 | 0.00 | 0.00 | 74 | 1006.9 |
| 20260505020015 | 23 | 202 | 0.0 | 4.8 | 0.00 | 0.00 | 0.00 | 74 | 1006.7 |
| 20260505014513 | 23 | 206 | 0.0 | 3.2 | 0.00 | 0.00 | 0.00 | 73 | 1006.5 |
| 20260505013020 | 23 | 209 | 0.0 | 1.6 | 0.00 | 0.00 | 0.00 | 72 | 1006.6 |
| 20260505011512 | 23 | 209 | 0.0 | 1.6 | 0.00 | 0.00 | 0.00 | 71 | 1006.6 |
| 20260505010012 | 24 | 211 | 0.0 | 1.6 | 0.00 | 0.00 | 0.00 | 70 | 1006.7 |
| 20260505004515 | 25 | 211 | 0.0 | 3.2 | 0.00 | 0.00 | 0.00 | 68 | 1006.6 |
| 20260505003014 | 25 | 210 | 0.0 | 6.4 | 0.00 | 0.00 | 0.00 | 67 | 1006.6 |
| 20260505001514 | 25 | 219 | 0.0 | 12.9 | 0.00 | 0.00 | 0.00 | 66 | 1006.7 |
| 20260505000025 | 25 | 174 | 0.0 | 9.7 | 0.00 | 0.00 | 0.00 | 64 | 1006.7 |
| 20260504234508 | 26 | 208 | 1.6 | 11.3 | 0.00 | 0.00 | 0.00 | 64 | 1007.0 |
| 20260504233004 | 26 | 215 | 0.0 | 9.7 | 0.00 | 0.00 | 0.00 | 64 | 1007.3 |
| 20260504231510 | 26 | 169 | 1.6 | 16.1 | 0.00 | 0.00 | 0.00 | 62 | 1007.5 |
| 20260504230001 | 26 | 232 | 0.0 | 11.3 | 0.00 | 0.00 | 0.00 | 63 | 1007.7 |
| 20260504224603 | 26 | 223 | 1.6 | 14.5 | 0.00 | 0.00 | 0.00 | 63 | 1007.6 |
| 20260504223058 | 26 | 207 | 1.6 | 17.7 | 0.00 | 0.00 | 0.00 | 62 | 1007.8 |
| 20260504221605 | 26 | 209 | 0.0 | 17.7 | 0.00 | 0.00 | 0.00 | 62 | 1008.0 |
| 20260504220056 | 26 | 207 | 0.0 | 19.3 | 0.00 | 0.00 | 0.00 | 61 | 1008.0 |
| 20260504214555 | 26 | 213 | 3.2 | 19.3 | 0.00 | 0.00 | 0.00 | 60 | 1008.1 |
| 20260504213054 | 26 | 169 | 0.0 | 12.9 | 0.00 | 0.00 | 0.00 | 62 | 1008.4 |
| 20260504211553 | 26 | 213 | 3.2 | 19.3 | 0.00 | 0.00 | 0.00 | 61 | 1008.7 |
| 20260504210106 | 26 | 208 | 1.6 | 30.6 | 0.00 | 0.00 | 0.00 | 57 | 1009.0 |
| 20260504204558 | 26 | 199 | 4.8 | 19.3 | 0.00 | 0.00 | 0.00 | 58 | 1009.1 |
| 20260504203048 | 27 | 225 | 1.6 | 12.9 | 0.00 | 0.00 | 0.00 | 58 | 1009.6 |
| 20260504201547 | 26 | 218 | 4.8 | 16.1 | 0.00 | 0.00 | 0.00 | 58 | 1010.0 |
| 20260504200039 | 26 | 225 | 1.6 | 19.3 | 0.00 | 0.00 | 0.00 | 59 | 1010.2 |